Location: Asheville, NC
(35.6000°N, 82.5500°W)
Time: 19:20:56
(UTC-04:00)

Vanguard 3 - Pass Details

Date: 15 February 2018
Orbit: 507 x 3264 km, 33.4° (Epoch: 27 May)

Event Time Altitude Azimuth Distance (km) Brightness Sun altitude
Rises 00:40:12 0° 264° (W) 3,935 - -67.1°
Reaches altitude 10° 00:43:41 10° 244° (WSW) 3,384 - -67.1°
Maximum altitude 00:49:09 18° 206° (SSW) 3,421 - -67.1°
Drops below altitude 10° 00:56:30 10° 170° (S) 4,766 - -66.9°
Sets 01:03:04 0° 155° (SSE) 6,339 - -66.7°
